Regional Weather Roundup
Issued by NWS

Home | Current Version | Previous Version | Text Only | Print | Product List | Glossary Off
Versions: 1 2 3 4 5 6 7 8 9 10 11 12 13 14 15 16 17 18 19 20 21 22 23 24 25 26 27 28 29 30 31 32 33 34 35 36 37 38 39 40 41 42 43 44 45 46 47 48 49 50

000
ASUS45 KBOU 290407
RWRCO

WEATHER ROUNDUP FOR COLORADO
NATIONAL WEATHER SERVICE DENVER/BOULDER CO
900 PM MST SUN DEC 28 2014

NOTE: "FAIR" INDICATES FEW OR NO CLOUDS BELOW 12000 FEET WITH NO
SIGNIFICANT WEATHER AND/OR OBSTRUCTIONS TO VISIBILITY.

COZ001>005-013-030-031-290500-
...NORTHWEST COLORADO...

CITY           SKY/WX    TMP DP  RH WIND       PRES   REMARKS
CRAIG          CLOUDY    20  14  77 N5        29.97R WCI  13
HAYDEN         CLOUDY    18  12  79 W3        29.95S
MEEKER         LGT SNOW  21  17  84 S6        29.98S FOG     WCI  13
MOUNT WERNER   NOT AVBL
STEAMBOAT SPGS CLOUDY    17  15  90 CALM      29.94S
WALDEN         CLOUDY    14  10  85 W5        29.87R WCI   6
$$

COZ006>008-011-290500-
...WEST CENTRAL VALLEYS...

CITY           SKY/WX    TMP DP  RH WIND       PRES   REMARKS
GRAND JUNCTION MOCLDY    20  16  84 CALM      30.03S
MONTROSE       PTCLDY    18  12  77 CALM      30.01F
EAGLE          CLOUDY    19  14  79 CALM      29.99S
RIFLE          CLOUDY    20  15  81 CALM      30.02S
DELTA          CLOUDY    24  11  57 NE7       30.02F WCI  16
NUCLA          CLOUDY    27  14  59 E6        30.05F WCI  20
$$

COZ017>023-064>068-290500-
...SOUTHWEST COLORADO...

CITY           SKY/WX    TMP DP  RH WIND       PRES   REMARKS
DURANGO        CLEAR      6   3  87 NE6       30.05S WCI  -4
CORTEZ         CLEAR     12   7  80 CALM      30.05F
PAGOSA SPRINGS CLEAR      9   8  96 CALM      30.03S
TELLURIDE      NOT AVBL
WOLF CREEK PAS LGT SNOW   3   0  85 MISG      29.90R
$$

COZ009-010-012-014-032>034-037-058>063-290500-
...CENTRAL COLORADO...

CITY           SKY/WX    TMP DP  RH WIND       PRES   REMARKS
ASPEN          CLOUDY    12   7  80 S8        29.92S WCI   0
BUENA VISTA    CLOUDY    18   8  63 CALM      29.90F
COPPER MTN     LGT SNOW   9   1  72 W18       29.79S WCI -10
BERTHOUD PASS  NOT AVBL
COTTONWOOD PAS LGT SNOW  18  10  73 N5        29.86S WCI  11
GUNNISON       MOCLDY     1 -22  32 S6        30.01S WCI -10
KREMMLING      CLOUDY    18  12  79 W7        29.94R WCI   8
LEADVILLE      CLOUDY    12   2  64 W15G23    29.84S WCI  -4
SALIDA         PTCLDY    27  10  48 W17G23    29.99F WCI  14
SUNLIGHT       LGT SNOW N/A N/A N/A SW3       29.86S VSB 1
WILKERSON PASS MOCLDY     9   3  78 SW7       29.84S WCI  -3
$$

COZ069>075-290500-
...SAN LUIS VALLEY/SANGRE DE CRISTO MOUNTAINS...

CITY           SKY/WX    TMP DP  RH WIND       PRES   REMARKS
ALAMOSA        MOCLDY    -3  -7  82 SW8       29.99S WCI -18
LA VETA PASS   NOT AVBL
SAGUACHE       CLOUDY     3  -2  78 N3        29.98S
$$

COZ035-036-038>040-290500-
...NORTHERN COLORADO FRONT RANGE...

CITY           SKY/WX    TMP DP  RH WIND       PRES   REMARKS
DENVER INTL AP PTCLDY    18   9  68 S10       29.92R WCI   6
DMNS CITY PARK   N/A     18  13  81 S1        29.93S
AURORA         PTCLDY    22  10  58 S3        29.92R
FRONT RANGE AP PTCLDY    18  12  79 S8        29.92R WCI   7
ERIE MUNI ARPT   N/A      5   2  88 MISG      29.94R
BOULDER MUN AP PTCLDY    18  12  79 CALM      29.92F
CENTENNIAL     MOCLDY    18   9  68 SW6       29.91R WCI  10
BROOMFIELD     PTCLDY    18  10  73 W3        29.92R
FORT COLLINS   MOCLDY    14  10  85 S3        29.95S
LONGMONT       MOCLDY     6   2  85 CALM      29.96S
$$

COZ041-046-047-076>085-087-088-290500-
...PIKES PEAK/PALMER DIVIDE AND SOUTHERN FOOTHILLS...

CITY           SKY/WX    TMP DP  RH WIND       PRES   REMARKS
COLO. SPRINGS  CLEAR     24  10  55 SE6       29.91R WCI  17
A. F. ACADEMY  PTCLDY    27   5  40 E2        29.88S
ELLICOTT       NOT AVBL
FALCON         CLEAR     24   7  47 NW10      29.90S WCI  14
FORT CARSON    PTCLDY    26  12  54 VRB1      29.90S
LIMON          CLEAR     13   9  84 CALM      29.93R
MONUMENT HILL  CLEAR     12   7  79 S8        29.87F WCI   1
TRINIDAD       PTCLDY    15   6  67 W12       29.93R WCI   2
$$

COZ042>045-048>051-090-091-290500-
...NORTHEAST COLORADO...

CITY           SKY/WX    TMP DP  RH WIND       PRES   REMARKS
GREELEY ARPT   CLOUDY     7  -2  66 NW6       29.94R WCI  -3
AKRON          PTCLDY    18  11  74 SW6       29.94R WCI  10
BURLINGTON     CLEAR     16  12  84 CALM      29.97R
WRAY           PTCLDY    11   9  92 W5        29.99S WCI   3
STERLING       PTCLDY     9   5  85 SW6       29.97S WCI  -1
HOLYOKE        PTCLDY    10   5  79 CALM      29.98F
FORT MORGAN    MOCLDY    17  12  80 SW5       29.94F WCI  10
$$

COZ086-089-092>099-290500-
...SOUTHEAST COLORADO...

CITY           SKY/WX    TMP DP  RH WIND       PRES   REMARKS
PUEBLO         CLEAR     30   8  39 NW13      29.92S WCI  20
LA JUNTA       CLEAR     24  18  77 N6        29.94S WCI  17
LAMAR          PTCLDY    19  15  84 CALM      29.94R
SPRINGFIELD      N/A     21  14  74 W6        29.92R WCI  13
$$


USA.gov is the U.S. government's official web portal to all federal, state and local government web resources and services.